GW0571 Weather Reports


time (UTC)temp
C
wind
direction
speed
KPH
gust
KPH
rain 1hr
cm
rain 24hr
cm
rain mn
cm
humidity
%
barometer
mb
20260503231145 11 196 3.2 6.4 0.00 0.00 0.00 46 1010.1
20260503230642 11 202 1.6 6.4 0.00 0.00 0.00 47 1010.0
20260503230139 11 132 3.2 4.8 0.00 0.00 0.00 45 1010.0
20260503225637 11 204 3.2 4.8 0.00 0.00 0.00 44 1010.1
20260503225136 11 225 6.4 9.7 0.00 0.00 0.00 42 1010.1
20260503224634 11 136 3.2 6.4 0.00 0.00 0.00 44 1010.2
20260503224132 11 260 1.6 4.8 0.00 0.00 0.00 43 1010.0
20260503223630 11 239 1.6 14.5 0.00 0.00 0.00 42 1010.1
20260503223125 11 254 9.7 17.7 0.00 0.00 0.00 42 1010.1
20260503222623 11 251 6.4 8.0 0.00 0.00 0.00 43 1010.1
20260503222121 11 233 6.4 14.5 0.00 0.00 0.00 42 1010.2
20260503221619 11 263 1.6 11.3 0.00 0.00 0.00 42 1010.2
20260503221116 11 216 8.0 14.5 0.00 0.00 0.00 42 1010.1
20260503220613 12 245 9.7 19.3 0.00 0.00 0.00 42 1010.2
20260503220109 12 241 6.4 12.9 0.00 0.00 0.00 39 1010.3
20260503215606 12 351 4.8 17.7 0.00 0.00 0.00 41 1010.4
20260503215103 12 244 12.9 16.1 0.00 0.00 0.00 42 1010.3
20260503214602 12 326 3.2 16.1 0.00 0.00 0.00 41 1010.2
20260503214057 12 17 8.0 14.5 0.00 0.00 0.00 42 1010.3
20260503213556 12 28 3.2 8.0 0.00 0.00 0.00 42 1010.5
20260503213052 12 254 6.4 16.1 0.00 0.00 0.00 42 1010.4
20260503212550 11 257 6.4 22.5 0.00 0.00 0.00 42 1010.4
20260503212047 11 256 11.3 12.9 0.00 0.00 0.00 43 1010.1
20260503211544 11 258 9.7 22.5 0.00 0.00 0.00 43 1010.5
20260503211039 11 187 3.2 32.2 0.00 0.00 0.00 45 1010.5
20260503210537 11 251 17.7 19.3 0.00 0.00 0.00 44 1010.4
20260503210032 11 304 3.2 22.5 0.00 0.00 0.00 44 1010.5
20260503205529 10 315 4.8 27.4 0.00 0.00 0.00 46 1010.7
20260503205026 10 313 3.2 32.2 0.00 0.00 0.00 46 1010.6
20260503204523 10 354 1.6 41.8 0.00 0.00 0.00 45 1010.4
20260503204020 11 256 6.4 24.1 0.00 0.00 0.00 43 1010.3
20260503203517 11 242 14.5 33.8 0.00 0.00 0.00 42 1010.3
20260503203014 11 244 8.0 37.0 0.00 0.00 0.00 43 1010.3
20260503202512 11 244 6.4 30.6 0.00 0.00 0.00 42 1010.3
20260503202010 11 289 9.7 24.1 0.00 0.00 0.00 41 1010.2
20260503201508 11 293 1.6 9.7 0.00 0.00 0.00 40 1010.3
20260503201004 11 268 12.9 19.3 0.00 0.00 0.00 42 1010.3
20260503200501 11 255 8.0 24.1 0.00 0.00 0.00 38 1010.5
20260503195957 11 256 4.8 12.9 0.00 0.00 0.00 38 1010.5
20260503195455 11 251 14.5 14.5 0.00 0.00 0.00 39 1010.6
20260503194951 11 226 11.3 33.8 0.00 0.00 0.00 38 1010.3
20260503194449 12 266 12.9 32.2 0.00 0.00 0.00 36 1010.5
20260503193943 11 276 6.4 24.1 0.00 0.00 0.00 37 1010.4
20260503193439 11 256 3.2 17.7 0.00 0.00 0.00 37 1010.6
20260503192935 11 330 4.8 25.7 0.00 0.00 0.00 37 1010.6
20260503192432 11 284 4.8 17.7 0.00 0.00 0.00 38 1010.7
20260503191927 11 286 3.2 8.0 0.00 0.00 0.00 36 1010.8
20260503191425 11 276 4.8 9.7 0.00 0.00 0.00 36 1010.7
20260503190921 12 334 8.0 14.5 0.00 0.00 0.00 34 1010.5
20260503190419 11 237 19.3 22.5 0.00 0.00 0.00 35 1010.7
20260503185915 11 280 17.7 27.4 0.00 0.00 0.00 36 1010.9
20260503185412 11 271 9.7 37.0 0.00 0.00 0.00 37 1010.8
20260503184911 11 265 8.0 25.7 0.00 0.00 0.00 36 1010.7
20260503184408 11 244 16.1 19.3 0.00 0.00 0.00 35 1010.8
20260503183904 11 269 8.0 22.5 0.00 0.00 0.00 36 1011.0
20260503183401 12 271 14.5 14.5 0.00 0.00 0.00 35 1011.0
20260503182858 10 257 6.4 32.2 0.00 0.00 0.00 36 1011.2
20260503182357 11 284 9.7 20.9 0.00 0.00 0.00 35 1011.3
20260503181854 10 320 8.0 11.3 0.00 0.00 0.00 35 1011.5
20260503181351 10 342 3.2 17.7 0.00 0.00 0.00 35 1011.2
20260503180847 10 324 14.5 22.5 0.00 0.00 0.00 34 1011.3
20260503180345 11 238 27.4 38.6 0.00 0.00 0.00 34 1011.3
20260503175841 11 247 14.5 22.5 0.00 0.00 0.00 35 1011.4
20260503175339 10 272 1.6 24.1 0.00 0.00 0.00 37 1011.3
20260503174835 10 231 17.7 25.7 0.00 0.00 0.00 37 1011.4
20260503174333 11 312 3.2 11.3 0.00 0.00 0.00 36 1011.6
20260503173828 10 217 4.8 19.3 0.00 0.00 0.00 39 1011.6
20260503173325 11 245 11.3 16.1 0.00 0.00 0.00 39 1011.6
20260503172822 10 244 6.4 9.7 0.00 0.00 0.00 37 1012.0
20260503172320 10 234 4.8 25.7 0.00 0.00 0.00 38 1011.8
20260503171815 9 252 8.0 19.3 0.00 0.00 0.00 37 1012.0
20260503171312 10 236 6.4 14.5 0.00 0.00 0.00 40 1012.1
20260503170810 8 316 3.2 14.5 0.00 0.00 0.00 39 1012.1
20260503170306 9 306 8.0 11.3 0.00 0.00 0.00 36 1012.2
20260503150658 7 291 11.3 20.9 0.00 0.00 0.00 37 1013.0
20260503150154 7 305 6.4 29.0 0.00 0.00 0.00 38 1013.2
20260503140119 6 231 3.2 11.3 0.00 0.00 0.00 47 1013.0
20260503131048 6 337 6.4 16.1 0.00 0.00 0.00 49 1013.3
20260503130545 5 271 4.8 27.4 0.00 0.00 0.00 52 1013.0
20260503110436 2 0 3.2 6.4 0.00 0.00 0.00 79 1013.0
20260503090327 2 236 0.0 6.4 0.00 0.00 0.00 79 1012.4
20260503081254 2 309 0.0 6.4 0.00 0.00 0.00 79 1012.4
20260503080750 2 347 1.6 4.8 0.00 0.00 0.00 79 1012.4
20260503080248 2 308 0.0 3.2 0.00 0.00 0.00 79 1012.3
20260503072724 1 32 0.0 4.8 0.00 0.00 0.00 83 1012.3
20260503072221 1 102 0.0 1.6 0.00 0.00 0.00 86 1012.2
20260503071718 1 109 3.2 3.2 0.00 0.00 0.00 85 1012.2
20260503071215 1 76 0.0 1.6 0.00 0.00 0.00 85 1012.4
20260503070711 1 118 3.2 3.2 0.00 0.00 0.00 83 1012.1
20260503070209 1 208 0.0 3.2 0.00 0.00 0.00 83 1012.3
20260503060133 1 97 1.6 1.6 0.00 0.00 0.00 88 1012.5
20260503055125 1 64 0.0 3.2 0.00 0.00 0.00 86 1012.6
20260503054621 1 66 0.0 1.6 0.00 0.00 0.00 86 1012.6
20260503054118 1 125 3.2 3.2 0.00 0.00 0.00 86 1012.7
20260503053616 1 124 3.2 3.2 0.00 0.00 0.00 86 1012.7
20260503053114 1 156 1.6 3.2 0.00 0.00 0.00 85 1012.9
20260503052610 1 128 1.6 3.2 0.00 0.00 0.00 84 1012.9
20260503052107 1 68 0.0 1.6 0.00 0.00 0.00 83 1012.9
20260503051602 1 67 1.6 3.2 0.00 0.00 0.00 82 1013.0
20260503051100 1 92 1.6 3.2 0.00 0.00 0.00 82 1013.0
20260503050556 1 73 0.0 3.2 0.00 0.00 0.00 81 1013.1
20260503050053 1 114 3.2 3.2 0.00 0.00 0.00 82 1013.2
20260503045550 1 95 1.6 3.2 0.00 0.00 0.00 82 1013.3
20260503045047 1 120 3.2 3.2 0.00 0.00 0.00 82 1013.4
20260503044544 1 95 3.2 3.2 0.00 0.00 0.00 81 1013.3
20260503044042 1 108 1.6 3.2 0.00 0.00 0.00 80 1013.3
20260503043538 2 26 1.6 3.2 0.00 0.00 0.00 78 1013.5
20260503043034 2 118 3.2 3.2 0.00 0.00 0.00 76 1013.5
20260503042531 2 119 1.6 3.2 0.00 0.00 0.00 77 1013.5
20260503042027 2 122 3.2 4.8 0.00 0.00 0.00 76 1013.6
20260503041524 2 122 3.2 4.8 0.00 0.00 0.00 75 1013.5
20260503041022 2 124 3.2 3.2 0.00 0.00 0.00 74 1013.6
20260503040520 2 69 0.0 3.2 0.00 0.00 0.00 73 1013.5
20260503040017 2 145 0.0 1.6 0.00 0.00 0.00 74 1013.5
20260503035513 2 130 0.0 1.6 0.00 0.00 0.00 74 1013.4
20260503035011 2 113 0.0 1.6 0.00 0.00 0.00 74 1013.5
20260503034508 2 55 0.0 1.6 0.00 0.00 0.00 73 1013.5
20260503034005 2 345 0.0 0.0 0.00 0.00 0.00 73 1013.3
20260503033502 2 345 0.0 3.2 0.00 0.00 0.00 73 1013.5
20260503033000 2 55 0.0 0.0 0.00 0.00 0.00 73 1013.5
20260503032458 2 19 0.0 1.6 0.00 0.00 0.00 73 1013.5
20260503031956 2 13 0.0 3.2 0.00 0.00 0.00 72 1013.5
20260503031454 2 19 0.0 4.8 0.00 0.00 0.00 72 1013.6
20260503030950 2 0 0.0 4.8 0.00 0.00 0.00 72 1013.5
20260503030446 2 32 0.0 3.2 0.00 0.00 0.00 72 1013.4
20260503025943 3 88 0.0 3.2 0.00 0.00 0.00 72 1013.6
20260503025440 3 216 1.6 3.2 0.00 0.00 0.00 73 1013.6
20260503024938 3 34 0.0 1.6 0.00 0.00 0.00 72 1013.6
20260503024434 3 333 0.0 3.2 0.00 0.00 0.00 71 1013.7
20260503023931 3 38 0.0 3.2 0.00 0.00 0.00 71 1013.6
20260503023428 3 10 1.6 6.4 0.00 0.00 0.00 70 1013.4
20260503022925 3 27 3.2 4.8 0.00 0.00 0.00 70 1013.6
20260503022420 3 13 0.0 8.0 0.00 0.00 0.00 69 1013.5
20260503021916 3 12 4.8 11.3 0.00 0.00 0.00 68 1013.6
20260503021412 3 334 4.8 8.0 0.00 0.00 0.00 68 1013.5
20260503020910 3 342 1.6 4.8 0.00 0.00 0.00 68 1013.7
20260503020408 3 8 3.2 4.8 0.00 0.00 0.00 68 1013.8
20260503015903 3 1 1.6 4.8 0.00 0.00 0.00 67 1013.7
20260503015401 3 315 0.0 8.0 0.00 0.00 0.00 67 1013.7
20260503014856 3 40 3.2 11.3 0.00 0.00 0.00 66 1013.7
20260503014354 3 59 0.0 11.3 0.00 0.00 0.00 67 1013.6
20260503013852 3 31 8.0 11.3 0.00 0.00 0.00 66 1013.6
20260503013348 4 4 3.2 11.3 0.00 0.00 0.00 68 1013.7
20260503012845 4 4 3.2 6.4 0.00 0.00 0.00 69 1013.5
20260503012343 4 180 0.0 4.8 0.00 0.00 0.00 69 1013.6
20260503011840 4 302 1.6 9.7 0.00 0.00 0.00 68 1013.6
20260503011337 4 10 6.4 6.4 0.00 0.00 0.00 67 1013.4
20260503010833 4 349 4.8 11.3 0.00 0.00 0.00 65 1013.6
20260503010331 4 21 3.2 4.8 0.00 0.00 0.00 64 1013.4
20260503005827 4 344 4.8 6.4 0.00 0.00 0.00 63 1013.5
20260503005325 5 137 3.2 4.8 0.00 0.00 0.00 62 1013.3
20260503004821 5 334 0.0 4.8 0.00 0.00 0.00 62 1013.2
20260503004319 5 356 3.2 6.4 0.00 0.00 0.00 61 1013.2
20260503003816 5 296 1.6 4.8 0.00 0.00 0.00 60 1013.2
20260503003313 5 326 3.2 9.7 0.00 0.00 0.00 60 1013.2
20260503002810 5 3 3.2 4.8 0.00 0.00 0.00 58 1013.0
20260503002307 5 19 4.8 8.0 0.00 0.00 0.00 58 1013.0
20260503001803 5 21 3.2 3.2 0.00 0.00 0.00 58 1013.1
20260503001259 5 336 1.6 4.8 0.00 0.00 0.00 57 1013.0
20260503000757 5 345 3.2 6.4 0.00 0.00 0.00 57 1013.1
20260503000254 5 21 1.6 8.0 0.00 0.00 0.00 58 1012.9
20260502235751 5 39 1.6 6.4 0.00 0.00 0.00 58 1013.0
20260502235249 5 358 1.6 4.8 0.00 0.00 0.00 56 1013.2
20260502234745 5 282 1.6 6.4 0.00 0.00 0.00 55 1013.0
20260502234242 5 296 0.0 6.4 0.00 0.00 0.00 55 1013.0
20260502233738 5 6 0.0 4.8 0.00 0.00 0.00 57 1013.1
20260502233235 5 22 0.0 4.8 0.00 0.00 0.00 55 1012.8
20260502232731 6 344 1.6 6.4 0.00 0.00 0.00 54 1012.9
20260502232228 6 0 3.2 4.8 0.00 0.00 0.00 54 1012.8
20260502231725 6 8 0.0 11.3 0.00 0.00 0.00 54 1012.7
20260502231223 6 4 4.8 11.3 0.00 0.00 0.00 54 1012.8